Time,TemperatureF,DewpointF,PressureIn,WindDirection,WindDirectionDegrees,WindSpeedMPH,WindSpeedGustMPH,Humidity,HourlyPrecipIn,Conditions,Clouds,dailyrainin,SoftwareType,DateUTC
2013-02-25 00:00:00,61.5,52.8,29.91,SSE,157,0.0,0.0,73,0.00,,---,0.00,VWS V14.01,2013-02-25 05:00:00,
2013-02-25 00:05:00,61.3,52.6,29.94,SSE,157,0.0,0.0,73,0.00,,---,0.00,VWS V14.01,2013-02-25 05:05:00,
2013-02-25 00:10:00,61.3,53.0,29.94,SSE,157,0.0,0.0,74,0.00,,---,0.00,VWS V14.01,2013-02-25 05:10:00,
2013-02-25 00:15:00,61.3,53.4,29.94,SSE,156,0.0,0.0,75,0.00,,---,0.00,VWS V14.01,2013-02-25 05:15:00,
2013-02-25 00:20:00,61.3,53.4,29.94,NNE,14,0.0,0.0,75,0.00,,---,0.00,VWS V14.01,2013-02-25 05:20:00,
2013-02-25 00:25:00,61.3,53.4,29.94,NNE,14,0.0,0.0,75,0.00,,---,0.00,VWS V14.01,2013-02-25 05:25:00,
2013-02-25 00:30:00,61.3,53.4,29.94,NNE,14,0.0,0.0,75,0.00,,---,0.00,VWS V14.01,2013-02-25 05:30:00,
2013-02-25 00:35:00,61.3,53.4,29.94,NNE,14,0.0,0.0,75,0.00,,---,0.00,VWS V14.01,2013-02-25 05:35:00,
2013-02-25 00:40:00,61.3,53.4,29.94,NNE,14,0.0,0.0,75,0.00,,---,0.00,VWS V14.01,2013-02-25 05:40:00,
2013-02-25 00:45:00,61.3,53.4,29.94,NNE,14,0.0,0.0,75,0.00,,---,0.00,VWS V14.01,2013-02-25 05:45:00,
2013-02-25 00:50:00,61.3,53.4,29.91,NE,44,0.0,0.0,75,0.00,,---,0.00,VWS V14.01,2013-02-25 05:50:00,
2013-02-25 00:55:00,61.3,54.1,29.91,NE,44,0.0,0.0,77,0.00,,---,0.00,VWS V14.01,2013-02-25 05:55:00,
2013-02-25 01:00:00,61.2,54.3,29.91,NNE,32,0.0,0.0,78,0.00,,---,0.00,VWS V14.01,2013-02-25 06:00:00,
2013-02-25 01:05:00,61.2,53.9,29.91,NNE,32,0.0,0.0,77,0.00,,---,0.00,VWS V14.01,2013-02-25 06:05:00,
2013-02-25 01:10:00,61.0,53.7,29.91,NNE,20,0.0,0.0,77,0.00,,---,0.00,VWS V14.01,2013-02-25 06:10:00,
2013-02-25 01:15:00,61.0,53.7,29.91,NNE,20,0.0,0.0,77,0.00,,---,0.00,VWS V14.01,2013-02-25 06:15:00,
2013-02-25 01:20:00,61.0,53.7,29.91,NNE,20,0.0,0.0,77,0.00,,---,0.00,VWS V14.01,2013-02-25 06:20:00,
2013-02-25 01:25:00,61.0,53.7,29.91,NNE,20,0.0,0.0,77,0.00,,---,0.00,VWS V14.01,2013-02-25 06:25:00,
2013-02-25 01:30:00,60.8,53.5,29.91,NNE,20,0.0,0.0,77,0.00,,---,0.00,VWS V14.01,2013-02-25 06:30:00,
2013-02-25 01:35:00,60.8,53.5,29.94,NNE,20,0.0,0.0,77,0.00,,---,0.00,VWS V14.01,2013-02-25 06:35:00,
2013-02-25 01:40:00,60.8,53.5,29.94,NNE,20,0.0,0.0,77,0.00,,---,0.00,VWS V14.01,2013-02-25 06:40:00,
2013-02-25 01:45:00,60.8,53.9,29.94,NNE,20,0.0,0.0,78,0.00,,---,0.00,VWS V14.01,2013-02-25 06:45:00,
2013-02-25 01:50:00,60.8,53.9,29.91,NNE,20,0.0,0.0,78,0.00,,---,0.00,VWS V14.01,2013-02-25 06:50:00,
2013-02-25 01:55:00,60.8,53.9,29.91,ENE,64,0.0,0.0,78,0.00,,---,0.00,VWS V14.01,2013-02-25 06:55:00,
2013-02-25 02:00:00,60.6,54.1,29.91,ENE,64,0.0,0.0,79,0.00,,---,0.00,VWS V14.01,2013-02-25 07:00:00,
2013-02-25 02:05:00,60.6,54.1,29.91,ENE,64,0.0,0.0,79,0.00,,---,0.00,VWS V14.01,2013-02-25 07:05:00,
2013-02-25 02:10:00,60.6,54.1,29.91,ENE,68,0.0,0.0,79,0.00,,---,0.00,VWS V14.01,2013-02-25 07:10:00,
2013-02-25 02:15:00,60.4,54.2,29.91,ENE,68,0.0,0.0,80,0.00,,---,0.00,VWS V14.01,2013-02-25 07:15:00,
2013-02-25 02:20:00,60.4,54.2,29.91,ENE,68,0.0,0.0,80,0.00,,---,0.00,VWS V14.01,2013-02-25 07:20:00,
2013-02-25 02:25:00,60.4,54.2,29.91,ENE,68,0.0,0.0,80,0.00,,---,0.00,VWS V14.01,2013-02-25 07:25:00,
2013-02-25 02:30:00,60.4,54.2,29.91,ENE,68,0.0,0.0,80,0.00,,---,0.00,VWS V14.01,2013-02-25 07:30:00,
2013-02-25 02:35:00,60.4,54.2,29.88,ENE,68,0.0,0.0,80,0.00,,---,0.00,VWS V14.01,2013-02-25 07:35:00,
2013-02-25 02:40:00,60.3,54.4,29.88,ENE,68,0.0,0.0,81,0.00,,---,0.00,VWS V14.01,2013-02-25 07:40:00,
2013-02-25 02:45:00,60.3,54.4,29.88,ENE,76,0.0,0.0,81,0.00,,---,0.00,VWS V14.01,2013-02-25 07:45:00,
2013-02-25 02:50:00,60.3,54.4,29.88,ENE,75,0.0,0.0,81,0.00,,---,0.00,VWS V14.01,2013-02-25 07:50:00,
2013-02-25 02:55:00,60.3,54.8,29.88,ENE,75,0.0,0.0,82,0.00,,---,0.00,VWS V14.01,2013-02-25 07:55:00,
2013-02-25 03:00:00,60.3,54.8,29.88,East,82,0.0,0.0,82,0.00,,---,0.00,VWS V14.01,2013-02-25 08:00:00,
2013-02-25 03:05:00,60.3,54.8,29.85,ENE,60,0.0,0.0,82,0.00,,---,0.00,VWS V14.01,2013-02-25 08:05:00,
2013-02-25 03:10:00,60.3,55.1,29.85,NE,56,0.0,0.0,83,0.00,,---,0.00,VWS V14.01,2013-02-25 08:10:00,
2013-02-25 03:15:00,60.3,55.4,29.85,NE,55,0.0,0.0,84,0.00,,---,0.00,VWS V14.01,2013-02-25 08:15:00,
2013-02-25 03:20:00,60.1,55.2,29.85,SSE,163,0.0,0.0,84,0.00,,---,0.00,VWS V14.01,2013-02-25 08:20:00,
2013-02-25 03:25:00,60.1,55.2,29.85,SSE,153,0.0,0.0,84,0.00,,---,0.00,VWS V14.01,2013-02-25 08:25:00,
2013-02-25 03:30:00,60.1,55.2,29.85,SSE,153,0.0,0.0,84,0.00,,---,0.00,VWS V14.01,2013-02-25 08:30:00,
2013-02-25 03:35:00,60.1,55.2,29.85,SSE,153,0.0,0.0,84,0.00,,---,0.00,VWS V14.01,2013-02-25 08:35:00,
2013-02-25 03:40:00,60.1,55.2,29.85,SSE,153,0.0,0.0,84,0.00,,---,0.00,VWS V14.01,2013-02-25 08:40:00,
2013-02-25 03:45:00,60.1,55.6,29.85,SSE,152,0.0,0.0,85,0.00,,---,0.00,VWS V14.01,2013-02-25 08:45:00,
2013-02-25 03:50:00,60.1,55.6,29.85,SSE,152,0.0,0.0,85,0.00,,---,0.00,VWS V14.01,2013-02-25 08:50:00,
2013-02-25 03:55:00,60.1,55.6,29.85,East,83,0.0,0.0,85,0.00,,---,0.00,VWS V14.01,2013-02-25 08:55:00,
2013-02-25 04:00:00,60.3,55.7,29.85,ENE,68,0.0,0.0,85,0.00,,---,0.00,VWS V14.01,2013-02-25 09:00:00,
2013-02-25 04:05:00,60.3,56.1,29.85,ENE,68,0.0,0.0,86,0.00,,---,0.00,VWS V14.01,2013-02-25 09:05:00,
2013-02-25 04:10:00,60.4,56.2,29.85,ENE,68,0.0,0.0,86,0.00,,---,0.00,VWS V14.01,2013-02-25 09:10:00,
2013-02-25 04:15:00,60.4,56.2,29.85,ENE,68,0.0,0.0,86,0.00,,---,0.00,VWS V14.01,2013-02-25 09:15:00,
2013-02-25 04:20:00,60.4,56.2,29.85,ENE,68,0.0,0.0,86,0.00,,---,0.00,VWS V14.01,2013-02-25 09:20:00,
2013-02-25 04:25:00,60.4,56.2,29.85,ENE,68,0.0,0.0,86,0.00,,---,0.00,VWS V14.01,2013-02-25 09:25:00,
2013-02-25 04:30:00,60.4,56.6,29.85,ENE,68,0.0,0.0,87,0.00,,---,0.00,VWS V14.01,2013-02-25 09:30:00,
2013-02-25 04:35:00,60.4,56.6,29.85,ENE,68,0.0,0.0,87,0.00,,---,0.00,VWS V14.01,2013-02-25 09:35:00,
2013-02-25 04:40:00,60.4,56.2,29.85,ENE,68,0.0,0.0,86,0.00,,---,0.00,VWS V14.01,2013-02-25 09:40:00,
2013-02-25 04:45:00,60.4,56.2,29.85,ENE,68,0.0,0.0,86,0.00,,---,0.00,VWS V14.01,2013-02-25 09:45:00,
2013-02-25 04:50:00,60.4,56.2,29.85,ENE,68,0.0,0.0,86,0.00,,---,0.00,VWS V14.01,2013-02-25 09:50:00,
2013-02-25 04:55:00,60.4,56.6,29.85,ENE,68,0.0,0.0,87,0.00,,---,0.00,VWS V14.01,2013-02-25 09:55:00,
2013-02-25 05:00:00,60.4,56.6,29.85,ENE,68,0.0,0.0,87,0.00,,---,0.00,VWS V14.01,2013-02-25 10:00:00,
2013-02-25 05:05:00,60.4,56.6,29.85,ENE,68,0.0,0.0,87,0.00,,---,0.00,VWS V14.01,2013-02-25 10:05:00,
2013-02-25 05:10:00,60.4,56.6,29.85,ENE,68,0.0,0.0,87,0.00,,---,0.00,VWS V14.01,2013-02-25 10:10:00,
2013-02-25 05:15:00,60.4,56.6,29.85,ENE,68,0.0,0.0,87,0.00,,---,0.00,VWS V14.01,2013-02-25 10:15:00,
2013-02-25 05:20:00,60.4,56.6,29.85,ENE,68,0.0,0.0,87,0.00,,---,0.00,VWS V14.01,2013-02-25 10:20:00,
2013-02-25 05:25:00,60.3,56.4,29.85,ENE,68,0.0,0.0,87,0.00,,---,0.00,VWS V14.01,2013-02-25 10:25:00,
2013-02-25 05:30:00,60.3,56.4,29.85,ENE,68,0.0,0.0,87,0.00,,---,0.00,VWS V14.01,2013-02-25 10:30:00,
2013-02-25 05:35:00,60.3,56.4,29.85,ENE,68,0.0,0.0,87,0.00,,---,0.00,VWS V14.01,2013-02-25 10:35:00,
2013-02-25 05:40:00,60.4,56.6,29.85,ENE,68,0.0,0.0,87,0.00,,---,0.00,VWS V14.01,2013-02-25 10:40:00,
2013-02-25 05:45:00,60.3,56.4,29.85,ENE,68,0.0,0.0,87,0.00,,---,0.00,VWS V14.01,2013-02-25 10:45:00,
2013-02-25 05:50:00,60.3,56.4,29.85,ENE,68,0.0,0.0,87,0.00,,---,0.00,VWS V14.01,2013-02-25 10:50:00,
2013-02-25 05:55:00,60.4,56.9,29.85,ENE,68,0.0,0.0,88,0.00,,---,0.00,VWS V14.01,2013-02-25 10:55:00,
2013-02-25 06:00:00,60.4,56.9,29.85,ENE,68,0.0,0.0,88,0.00,,---,0.00,VWS V14.01,2013-02-25 11:00:00,
2013-02-25 06:05:00,60.4,56.9,29.85,ENE,68,0.0,0.0,88,0.00,,---,0.00,VWS V14.01,2013-02-25 11:05:00,
2013-02-25 06:10:00,60.6,57.4,29.85,NE,50,3.1,3.1,89,0.00,,---,0.00,VWS V14.01,2013-02-25 11:10:00,
2013-02-25 06:15:00,61.0,57.7,29.85,ENE,60,0.0,0.0,89,0.00,,---,0.00,VWS V14.01,2013-02-25 11:15:00,
2013-02-25 06:20:00,61.2,58.2,29.85,East,81,0.0,0.0,90,0.00,,---,0.00,VWS V14.01,2013-02-25 11:20:00,
2013-02-25 06:25:00,61.3,58.4,29.85,East,81,0.0,0.0,90,0.00,,---,0.00,VWS V14.01,2013-02-25 11:25:00,
2013-02-25 06:30:00,61.5,58.9,29.85,ENE,63,0.0,0.0,91,0.00,,---,0.00,VWS V14.01,2013-02-25 11:30:00,
2013-02-25 06:35:00,61.7,59.0,29.85,NE,55,0.0,0.0,91,0.00,,---,0.00,VWS V14.01,2013-02-25 11:35:00,
2013-02-25 06:40:00,61.7,59.0,29.85,NE,55,0.0,0.0,91,0.00,,---,0.00,VWS V14.01,2013-02-25 11:40:00,
2013-02-25 06:45:00,61.9,59.2,29.85,ENE,58,0.0,0.0,91,0.00,,---,0.00,VWS V14.01,2013-02-25 11:45:00,
2013-02-25 06:50:00,61.9,59.2,29.85,NE,42,0.0,0.0,91,0.00,,---,0.00,VWS V14.01,2013-02-25 11:50:00,
2013-02-25 06:55:00,61.9,59.2,29.85,ENE,68,0.0,0.0,91,0.00,,---,0.00,VWS V14.01,2013-02-25 11:55:00,
2013-02-25 07:00:00,61.9,59.2,29.85,ENE,63,0.0,0.0,91,0.00,,---,0.00,VWS V14.01,2013-02-25 12:00:00,
2013-02-25 07:05:00,62.1,59.7,29.88,ENE,63,0.0,0.0,92,0.00,,---,0.00,VWS V14.01,2013-02-25 12:05:00,
2013-02-25 07:10:00,62.2,59.9,29.88,ENE,69,0.0,0.0,92,0.00,,---,0.00,VWS V14.01,2013-02-25 12:10:00,
2013-02-25 07:15:00,62.2,59.9,29.88,ENE,69,0.0,0.0,92,0.00,,---,0.00,VWS V14.01,2013-02-25 12:15:00,
2013-02-25 07:20:00,62.2,59.9,29.88,ENE,69,0.0,0.0,92,0.00,,---,0.00,VWS V14.01,2013-02-25 12:20:00,
2013-02-25 07:25:00,62.4,60.1,29.88,ENE,69,0.0,0.0,92,0.00,,---,0.00,VWS V14.01,2013-02-25 12:25:00,
2013-02-25 07:30:00,62.4,60.1,29.88,ENE,69,0.0,0.0,92,0.00,,---,0.00,VWS V14.01,2013-02-25 12:30:00,
2013-02-25 07:35:00,62.4,60.1,29.88,ENE,69,0.0,0.0,92,0.00,,---,0.00,VWS V14.01,2013-02-25 12:35:00,
2013-02-25 07:40:00,62.6,60.2,29.88,ENE,69,0.0,0.0,92,0.00,,---,0.00,VWS V14.01,2013-02-25 12:40:00,
2013-02-25 07:45:00,62.6,60.2,29.88,NNE,13,0.0,0.0,92,0.00,,---,0.00,VWS V14.01,2013-02-25 12:45:00,
2013-02-25 07:50:00,62.8,60.7,29.88,NNE,13,0.0,0.0,93,0.00,,---,0.00,VWS V14.01,2013-02-25 12:50:00,
2013-02-25 07:55:00,63.0,60.9,29.88,NNE,13,0.0,0.0,93,0.00,,---,0.00,VWS V14.01,2013-02-25 12:55:00,
2013-02-25 08:00:00,63.1,61.1,29.88,NNE,13,0.0,0.0,93,0.00,,---,0.00,VWS V14.01,2013-02-25 13:00:00,
2013-02-25 08:05:00,63.1,61.1,29.88,NNE,14,0.0,0.0,93,0.00,,---,0.00,VWS V14.01,2013-02-25 13:05:00,
2013-02-25 08:10:00,63.1,61.1,29.88,NNE,13,0.0,0.0,93,0.00,,---,0.00,VWS V14.01,2013-02-25 13:10:00,
2013-02-25 08:15:00,63.1,61.1,29.88,NNE,13,0.0,0.0,93,0.00,,---,0.00,VWS V14.01,2013-02-25 13:15:00,
2013-02-25 08:20:00,63.1,61.1,29.88,NNE,13,0.0,0.0,93,0.00,,---,0.00,VWS V14.01,2013-02-25 13:20:00,
2013-02-25 08:25:00,63.1,61.1,29.88,ENE,75,0.0,0.0,93,0.00,,---,0.00,VWS V14.01,2013-02-25 13:25:00,
2013-02-25 08:30:00,63.3,61.3,29.88,NNE,25,0.0,0.0,93,0.00,,---,0.00,VWS V14.01,2013-02-25 13:30:00,
2013-02-25 08:35:00,63.5,61.8,29.88,NNE,17,0.0,0.0,94,0.00,,---,0.00,VWS V14.01,2013-02-25 13:35:00,
2013-02-25 08:40:00,63.7,62.2,29.88,NNE,19,0.0,0.0,95,0.00,,---,0.00,VWS V14.01,2013-02-25 13:40:00,
2013-02-25 08:45:00,63.9,62.4,29.88,ENE,75,0.0,0.0,95,0.00,,---,0.00,VWS V14.01,2013-02-25 13:45:00,
2013-02-25 08:50:00,64.0,63.2,29.88,ENE,61,0.0,0.0,97,0.00,,---,0.00,VWS V14.01,2013-02-25 13:50:00,
2013-02-25 08:55:00,64.2,63.3,29.88,NNE,18,0.0,0.0,97,0.00,,---,0.00,VWS V14.01,2013-02-25 13:55:00,
2013-02-25 09:00:00,64.2,63.3,29.88,North,2,0.0,0.0,97,0.00,,---,0.00,VWS V14.01,2013-02-25 14:00:00,
2013-02-25 09:05:00,64.4,63.5,29.88,NE,52,0.0,0.0,97,0.00,,---,0.00,VWS V14.01,2013-02-25 14:05:00,
2013-02-25 09:10:00,64.6,63.7,29.88,North,357,0.0,0.0,97,0.00,,---,0.00,VWS V14.01,2013-02-25 14:10:00,
2013-02-25 09:15:00,64.8,64.2,29.88,East,82,0.0,0.0,98,0.00,,---,0.00,VWS V14.01,2013-02-25 14:15:00,
2013-02-25 09:20:00,64.8,63.9,29.88,NNE,13,0.0,0.0,97,0.00,,---,0.00,VWS V14.01,2013-02-25 14:20:00,
2013-02-25 09:25:00,64.9,64.1,29.88,East,84,0.0,0.0,97,0.00,,---,0.00,VWS V14.01,2013-02-25 14:25:00,
2013-02-25 09:30:00,65.1,64.2,29.88,North,0,0.0,0.0,97,0.00,,---,0.00,VWS V14.01,2013-02-25 14:30:00,
2013-02-25 09:35:00,65.1,64.2,29.88,East,84,3.1,3.1,97,0.00,,---,0.00,VWS V14.01,2013-02-25 14:35:00,
2013-02-25 09:40:00,65.3,64.4,29.88,NNE,33,0.0,0.0,97,0.00,,---,0.00,VWS V14.01,2013-02-25 14:40:00,
2013-02-25 09:45:00,65.7,65.1,29.88,ENE,64,0.0,2.2,98,0.00,,---,0.00,VWS V14.01,2013-02-25 14:45:00,
2013-02-25 09:50:00,65.8,65.3,29.88,NNE,31,0.0,0.0,98,0.00,,---,0.00,VWS V14.01,2013-02-25 14:50:00,
2013-02-25 09:55:00,66.0,65.4,29.88,ENE,62,2.7,2.7,98,0.00,,---,0.00,VWS V14.01,2013-02-25 14:55:00,
2013-02-25 10:00:00,66.2,65.3,29.88,East,83,2.2,2.2,97,0.00,,---,0.00,VWS V14.01,2013-02-25 15:00:00,
2013-02-25 10:05:00,66.2,65.3,29.88,ENE,59,3.6,3.6,97,0.00,,---,0.00,VWS V14.01,2013-02-25 15:05:00,
2013-02-25 10:10:00,66.2,65.0,29.88,ENE,68,0.0,0.0,96,0.00,,---,0.00,VWS V14.01,2013-02-25 15:10:00,
2013-02-25 10:15:00,66.4,65.5,29.88,East,91,0.0,0.0,97,0.00,,---,0.00,VWS V14.01,2013-02-25 15:15:00,
2013-02-25 10:20:00,66.7,65.9,29.88,NE,34,0.0,3.6,97,0.00,,---,0.00,VWS V14.01,2013-02-25 15:20:00,
2013-02-25 10:25:00,67.1,66.5,29.88,East,79,2.2,3.1,98,0.00,,---,0.00,VWS V14.01,2013-02-25 15:25:00,
2013-02-25 10:30:00,67.3,66.4,29.88,ENE,66,0.0,0.0,97,0.00,,---,0.00,VWS V14.01,2013-02-25 15:30:00,
2013-02-25 10:35:00,67.5,66.6,29.88,ENE,72,2.7,3.1,97,0.00,,---,0.00,VWS V14.01,2013-02-25 15:35:00,
2013-02-25 10:40:00,67.8,67.2,29.88,ENE,67,3.1,3.1,98,0.00,,---,0.00,VWS V14.01,2013-02-25 15:40:00,
2013-02-25 10:45:00,68.4,67.5,29.88,ENE,68,0.0,0.0,97,0.00,,---,0.00,VWS V14.01,2013-02-25 15:45:00,
2013-02-25 10:50:00,69.1,68.2,29.88,North,9,0.0,2.7,97,0.00,,---,0.00,VWS V14.01,2013-02-25 15:50:00,
2013-02-25 10:55:00,70.0,68.8,29.88,NNW,340,0.0,0.0,96,0.00,,---,0.00,VWS V14.01,2013-02-25 15:55:00,
2013-02-25 11:00:00,70.5,68.4,29.88,North,353,2.2,3.6,93,0.00,,---,0.00,VWS V14.01,2013-02-25 16:00:00,
2013-02-25 11:05:00,71.1,67.7,29.88,ENE,63,3.6,3.6,89,0.00,,---,0.00,VWS V14.01,2013-02-25 16:05:00,
2013-02-25 11:10:00,71.1,67.3,29.88,NNE,18,2.7,4.0,88,0.00,,---,0.00,VWS V14.01,2013-02-25 16:10:00,
2013-02-25 11:15:00,71.1,66.7,29.88,NW,313,4.9,4.9,86,0.00,,---,0.00,VWS V14.01,2013-02-25 16:15:00,
2013-02-25 11:20:00,71.2,66.8,29.88,ENE,57,0.0,0.0,86,0.00,,---,0.00,VWS V14.01,2013-02-25 16:20:00,
2013-02-25 11:25:00,71.4,67.3,29.88,ENE,62,2.2,3.6,87,0.00,,---,0.00,VWS V14.01,2013-02-25 16:25:00,
2013-02-25 11:30:00,71.4,66.7,29.88,ENE,72,0.0,2.7,85,0.00,,---,0.00,VWS V14.01,2013-02-25 16:30:00,
2013-02-25 11:35:00,71.6,66.9,29.88,NE,41,0.0,0.0,85,0.00,,---,0.00,VWS V14.01,2013-02-25 16:35:00,
2013-02-25 11:40:00,71.8,67.4,29.88,ENE,74,0.0,2.7,86,0.00,,---,0.00,VWS V14.01,2013-02-25 16:40:00,
2013-02-25 11:45:00,72.1,67.4,29.88,North,7,0.0,0.0,85,0.00,,---,0.00,VWS V14.01,2013-02-25 16:45:00,
2013-02-25 11:50:00,72.3,67.2,29.88,NE,39,2.7,2.7,84,0.00,,---,0.00,VWS V14.01,2013-02-25 16:50:00,
2013-02-25 11:55:00,72.3,67.2,29.88,ENE,57,0.0,2.7,84,0.00,,---,0.00,VWS V14.01,2013-02-25 16:55:00,
2013-02-25 12:00:00,72.3,66.9,29.88,East,96,2.7,3.1,83,0.00,,---,0.00,VWS V14.01,2013-02-25 17:00:00,
2013-02-25 12:05:00,72.3,66.5,29.85,NNE,17,5.4,5.4,82,0.00,,---,0.00,VWS V14.01,2013-02-25 17:05:00,
2013-02-25 12:10:00,72.3,66.2,29.85,ESE,110,2.7,2.7,81,0.00,,---,0.00,VWS V14.01,2013-02-25 17:10:00,
2013-02-25 12:15:00,72.5,65.6,29.85,NE,38,0.0,3.1,79,0.00,,---,0.00,VWS V14.01,2013-02-25 17:15:00,
2013-02-25 12:20:00,72.9,66.3,29.85,ESE,108,0.0,2.2,80,0.00,,---,0.00,VWS V14.01,2013-02-25 17:20:00,
2013-02-25 12:25:00,73.8,67.9,29.85,ENE,66,2.7,4.0,82,0.00,,---,0.00,VWS V14.01,2013-02-25 17:25:00,
2013-02-25 12:30:00,74.5,67.2,29.85,NE,43,2.2,3.1,78,0.00,,---,0.00,VWS V14.01,2013-02-25 17:30:00,
2013-02-25 12:35:00,74.7,67.0,29.85,ENE,60,3.1,5.4,77,0.00,,---,0.00,VWS V14.01,2013-02-25 17:35:00,
2013-02-25 12:40:00,74.5,65.7,29.85,ESE,121,2.7,2.7,74,0.00,,---,0.00,VWS V14.01,2013-02-25 17:40:00,
2013-02-25 12:45:00,74.3,64.3,29.85,NE,34,5.4,5.4,71,0.00,,---,0.00,VWS V14.01,2013-02-25 17:45:00,
2013-02-25 12:50:00,74.7,64.2,29.85,ENE,58,3.1,3.6,70,0.00,,---,0.00,VWS V14.01,2013-02-25 17:50:00,
2013-02-25 12:55:00,74.8,64.0,29.85,NNW,339,5.8,5.8,69,0.00,,---,0.00,VWS V14.01,2013-02-25 17:55:00,
2013-02-25 13:00:00,75.0,63.8,29.85,East,91,4.0,4.0,68,0.00,,---,0.00,VWS V14.01,2013-02-25 18:00:00,
2013-02-25 13:05:00,75.0,62.9,29.85,NNE,19,2.7,4.0,66,0.00,,---,0.00,VWS V14.01,2013-02-25 18:05:00,
2013-02-25 13:10:00,75.0,61.6,29.85,East,96,5.4,5.4,63,0.00,,---,0.00,VWS V14.01,2013-02-25 18:10:00,
2013-02-25 13:15:00,75.2,62.6,29.85,East,90,3.6,3.6,65,0.00,,---,0.00,VWS V14.01,2013-02-25 18:15:00,
2013-02-25 13:20:00,74.8,61.4,29.85,ENE,77,4.0,5.4,63,0.00,,---,0.00,VWS V14.01,2013-02-25 18:20:00,
2013-02-25 13:25:00,74.7,60.3,29.85,NE,49,5.8,6.3,61,0.00,,---,0.00,VWS V14.01,2013-02-25 18:25:00,
2013-02-25 13:30:00,74.3,60.0,29.85,ENE,60,3.6,4.9,61,0.00,,---,0.00,VWS V14.01,2013-02-25 18:30:00,
2013-02-25 13:35:00,73.9,60.1,29.83,NNE,33,0.0,2.7,62,0.00,,---,0.00,VWS V14.01,2013-02-25 18:35:00,
2013-02-25 13:40:00,73.4,59.6,29.83,East,92,2.7,4.0,62,0.00,,---,0.00,VWS V14.01,2013-02-25 18:40:00,
2013-02-25 13:45:00,73.0,59.3,29.83,East,83,0.0,2.2,62,0.00,,---,0.00,VWS V14.01,2013-02-25 18:45:00,
2013-02-25 13:50:00,72.5,59.2,29.83,NNW,331,0.0,0.0,63,0.00,,---,0.00,VWS V14.01,2013-02-25 18:50:00,
2013-02-25 13:55:00,71.8,58.5,29.83,SW,215,3.1,3.1,63,0.00,,---,0.00,VWS V14.01,2013-02-25 18:55:00,
2013-02-25 14:00:00,71.2,58.5,29.83,SW,225,0.0,2.7,64,0.00,,---,0.00,VWS V14.01,2013-02-25 19:00:00,
2013-02-25 14:05:00,70.7,58.4,29.83,ENE,76,5.4,5.4,65,0.00,,---,0.00,VWS V14.01,2013-02-25 19:05:00,
2013-02-25 14:10:00,70.2,57.9,29.83,North,357,4.0,4.0,65,0.00,,---,0.00,VWS V14.01,2013-02-25 19:10:00,
2013-02-25 14:15:00,69.4,59.6,29.83,NNE,12,2.7,3.6,71,0.00,,---,0.00,VWS V14.01,2013-02-25 19:15:00,
2013-02-25 14:20:00,68.5,58.8,29.83,West,260,2.2,2.2,71,0.04,,---,0.04,VWS V14.01,2013-02-25 19:20:00,
2013-02-25 14:25:00,68.0,57.9,29.83,NNW,328,6.7,6.7,70,0.04,,---,0.04,VWS V14.01,2013-02-25 19:25:00,
2013-02-25 14:30:00,67.6,59.8,29.83,ENE,60,3.1,4.0,76,0.04,,---,0.04,VWS V14.01,2013-02-25 19:30:00,
2013-02-25 14:35:00,67.3,59.5,29.83,SSW,213,2.2,2.7,76,0.04,,---,0.04,VWS V14.01,2013-02-25 19:35:00,
2013-02-25 14:40:00,67.1,61.1,29.83,ENE,66,2.2,4.0,81,0.04,,---,0.04,VWS V14.01,2013-02-25 19:40:00,
2013-02-25 14:46:00,67.3,62.6,29.83,ENE,63,2.2,3.6,85,0.04,,---,0.04,VWS V14.01,2013-02-25 19:46:00,
2013-02-25 14:51:00,66.9,61.9,29.83,ENE,67,2.7,4.0,84,0.04,,---,0.04,VWS V14.01,2013-02-25 19:51:00,
2013-02-25 14:56:00,66.9,61.6,29.83,NNE,15,0.0,4.0,83,0.04,,---,0.04,VWS V14.01,2013-02-25 19:56:00,
2013-02-25 15:01:00,67.1,62.1,29.83,ENE,69,2.2,3.1,84,0.04,,---,0.04,VWS V14.01,2013-02-25 20:01:00,
2013-02-25 15:06:00,67.1,62.1,29.83,NNE,19,0.0,0.0,84,0.04,,---,0.04,VWS V14.01,2013-02-25 20:06:00,
2013-02-25 15:11:00,67.1,62.1,29.83,SE,129,0.0,0.0,84,0.04,,---,0.04,VWS V14.01,2013-02-25 20:11:00,
2013-02-25 15:16:00,67.3,62.6,29.83,NNE,23,0.0,3.6,85,0.04,,---,0.04,VWS V14.01,2013-02-25 20:16:00,
2013-02-25 15:21:00,67.5,63.8,29.83,WNW,291,0.0,4.0,88,0.00,,---,0.04,VWS V14.01,2013-02-25 20:21:00,
2013-02-25 15:26:00,67.3,63.6,29.83,SW,230,2.7,2.7,88,0.00,,---,0.04,VWS V14.01,2013-02-25 20:26:00,
2013-02-25 15:31:00,67.3,64.2,29.83,NNE,19,3.1,5.4,90,0.00,,---,0.04,VWS V14.01,2013-02-25 20:31:00,
2013-02-25 15:36:00,67.1,64.7,29.83,NE,40,2.7,5.4,92,0.00,,---,0.04,VWS V14.01,2013-02-25 20:36:00,
2013-02-25 15:41:00,66.9,64.5,29.83,North,4,3.1,3.1,92,0.00,,---,0.04,VWS V14.01,2013-02-25 20:41:00,
2013-02-25 15:46:00,66.9,64.5,29.83,East,84,0.0,5.8,92,0.00,,---,0.04,VWS V14.01,2013-02-25 20:46:00,
2013-02-25 15:51:00,66.9,63.9,29.83,ESE,106,3.6,3.6,90,0.00,,---,0.04,VWS V14.01,2013-02-25 20:51:00,
2013-02-25 15:56:00,67.1,64.4,29.83,ENE,78,0.0,0.0,91,0.00,,---,0.04,VWS V14.01,2013-02-25 20:56:00,
2013-02-25 16:01:00,67.1,64.4,29.83,East,84,5.4,6.7,91,0.00,,---,0.04,VWS V14.01,2013-02-25 21:01:00,
2013-02-25 16:06:00,67.3,64.9,29.85,NE,56,0.0,0.0,92,0.00,,---,0.04,VWS V14.01,2013-02-25 21:06:00,
2013-02-25 16:11:00,67.1,65.0,29.85,North,0,0.0,2.2,93,0.00,,---,0.04,VWS V14.01,2013-02-25 21:11:00,
2013-02-25 16:16:00,67.1,64.7,29.85,West,269,0.0,0.0,92,0.00,,---,0.04,VWS V14.01,2013-02-25 21:16:00,
2013-02-25 16:21:00,67.1,64.7,29.83,North,353,0.0,4.9,92,0.00,,---,0.04,VWS V14.01,2013-02-25 21:21:00,
2013-02-25 16:26:00,67.1,64.4,29.83,North,4,2.7,2.7,91,0.00,,---,0.04,VWS V14.01,2013-02-25 21:26:00,
2013-02-25 16:31:00,67.1,64.7,29.83,NNW,346,3.6,3.6,92,0.00,,---,0.04,VWS V14.01,2013-02-25 21:31:00,
2013-02-25 16:36:00,67.3,64.9,29.83,ENE,72,3.6,3.6,92,0.00,,---,0.04,VWS V14.01,2013-02-25 21:36:00,
2013-02-25 16:41:00,67.3,64.9,29.83,North,353,3.6,3.6,92,0.00,,---,0.04,VWS V14.01,2013-02-25 21:41:00,
2013-02-25 16:46:00,67.5,65.4,29.83,NNE,33,3.6,3.6,93,0.00,,---,0.04,VWS V14.01,2013-02-25 21:46:00,
2013-02-25 16:51:00,67.3,65.2,29.83,ENE,75,0.0,0.0,93,0.00,,---,0.04,VWS V14.01,2013-02-25 21:51:00,
2013-02-25 16:56:00,67.5,65.4,29.83,NNE,24,3.6,3.6,93,0.00,,---,0.04,VWS V14.01,2013-02-25 21:56:00,
2013-02-25 17:01:00,67.5,66.0,29.83,ENE,73,2.7,2.7,95,0.00,,---,0.04,VWS V14.01,2013-02-25 22:01:00,
2013-02-25 17:06:00,67.5,65.7,29.83,ENE,71,3.1,4.9,94,0.00,,---,0.04,VWS V14.01,2013-02-25 22:06:00,
2013-02-25 17:11:00,67.5,65.7,29.83,NW,323,4.0,4.0,94,0.00,,---,0.04,VWS V14.01,2013-02-25 22:11:00,
2013-02-25 17:16:00,67.5,65.7,29.83,North,1,0.0,0.0,94,0.00,,---,0.04,VWS V14.01,2013-02-25 22:16:00,
2013-02-25 17:21:00,67.5,65.7,29.83,East,83,2.7,2.7,94,0.00,,---,0.04,VWS V14.01,2013-02-25 22:21:00,
2013-02-25 17:26:00,67.5,65.7,29.83,NE,51,3.1,3.1,94,0.00,,---,0.04,VWS V14.01,2013-02-25 22:26:00,
2013-02-25 17:31:00,67.5,66.0,29.83,NE,54,0.0,0.0,95,0.00,,---,0.04,VWS V14.01,2013-02-25 22:31:00,
2013-02-25 17:36:00,67.5,66.3,29.83,ENE,69,0.0,0.0,96,0.00,,---,0.04,VWS V14.01,2013-02-25 22:36:00,
2013-02-25 17:41:00,67.5,66.6,29.83,NE,45,0.0,0.0,97,0.08,,---,0.12,VWS V14.01,2013-02-25 22:41:00,
2013-02-25 17:46:00,67.3,66.1,29.83,North,3,0.0,0.0,96,0.08,,---,0.12,VWS V14.01,2013-02-25 22:46:00,
2013-02-25 17:51:00,67.3,66.4,29.83,ENE,78,0.0,0.0,97,0.08,,---,0.12,VWS V14.01,2013-02-25 22:51:00,
2013-02-25 17:56:00,67.3,66.7,29.83,NNW,330,0.0,0.0,98,0.08,,---,0.12,VWS V14.01,2013-02-25 22:56:00,
2013-02-25 18:01:00,67.3,66.7,29.83,North,5,0.0,0.0,98,0.08,,---,0.12,VWS V14.01,2013-02-25 23:01:00,
2013-02-25 18:06:00,67.1,66.8,29.83,SE,136,2.2,2.2,99,0.08,,---,0.12,VWS V14.01,2013-02-25 23:06:00,
2013-02-25 18:11:00,67.3,67.3,29.83,West,274,2.2,2.2,100,0.08,,---,0.12,VWS V14.01,2013-02-25 23:11:00,
2013-02-25 18:16:00,67.1,67.1,29.83,NNE,33,0.0,0.0,100,0.08,,---,0.12,VWS V14.01,2013-02-25 23:16:00,
2013-02-25 18:21:00,67.1,67.1,29.83,WNW,294,0.0,0.0,100,0.08,,---,0.12,VWS V14.01,2013-02-25 23:21:00,
2013-02-25 18:26:00,66.9,66.9,29.83,North,353,2.7,2.7,100,0.08,,---,0.12,VWS V14.01,2013-02-25 23:26:00,
2013-02-25 18:31:00,66.9,66.6,29.83,West,281,0.0,0.0,99,0.08,,---,0.12,VWS V14.01,2013-02-25 23:31:00,
2013-02-25 18:36:00,66.7,66.7,29.85,NE,51,0.0,0.0,100,0.08,,---,0.12,VWS V14.01,2013-02-25 23:36:00,
2013-02-25 18:41:00,66.7,66.7,29.85,ENE,69,5.4,5.4,100,0.00,,---,0.12,VWS V14.01,2013-02-25 23:41:00,
2013-02-25 18:46:00,66.6,66.3,29.85,NE,39,0.0,0.0,99,0.00,,---,0.12,VWS V14.01,2013-02-25 23:46:00,
2013-02-25 18:51:00,66.4,66.1,29.85,NNE,24,0.0,0.0,99,0.00,,---,0.12,VWS V14.01,2013-02-25 23:51:00,
2013-02-25 18:56:00,66.0,66.0,29.85,NNE,33,0.0,0.0,100,0.00,,---,0.12,VWS V14.01,2013-02-25 23:56:00,
2013-02-25 19:01:00,65.8,65.8,29.85,NNE,18,2.7,3.6,100,0.00,,---,0.12,VWS V14.01,2013-02-26 00:01:00,
2013-02-25 19:06:00,65.5,65.5,29.85,ESE,105,0.0,0.0,100,0.00,,---,0.12,VWS V14.01,2013-02-26 00:06:00,
2013-02-25 19:11:00,65.5,65.5,29.85,ENE,64,0.0,0.0,100,0.00,,---,0.12,VWS V14.01,2013-02-26 00:11:00,
2013-02-25 19:16:00,65.3,65.3,29.85,North,5,2.2,4.9,100,0.00,,---,0.12,VWS V14.01,2013-02-26 00:16:00,
2013-02-25 19:21:00,65.1,65.1,29.85,NE,44,2.7,2.7,100,0.00,,---,0.12,VWS V14.01,2013-02-26 00:21:00,
2013-02-25 19:26:00,64.9,64.9,29.85,ESE,114,0.0,0.0,100,0.00,,---,0.12,VWS V14.01,2013-02-26 00:26:00,
2013-02-25 19:31:00,64.9,64.9,29.85,North,1,0.0,0.0,100,0.00,,---,0.12,VWS V14.01,2013-02-26 00:31:00,
2013-02-25 19:36:00,64.8,64.8,29.85,NE,50,0.0,0.0,100,0.00,,---,0.12,VWS V14.01,2013-02-26 00:36:00,
2013-02-25 19:41:00,64.6,64.6,29.85,NNE,28,0.0,0.0,100,0.00,,---,0.12,VWS V14.01,2013-02-26 00:41:00,
2013-02-25 19:46:00,64.4,64.4,29.85,NNE,18,4.5,4.5,100,0.00,,---,0.12,VWS V14.01,2013-02-26 00:46:00,
2013-02-25 19:51:00,64.2,64.2,29.85,ESE,109,0.0,0.0,100,0.00,,---,0.12,VWS V14.01,2013-02-26 00:51:00,
2013-02-25 19:56:00,64.0,64.0,29.85,East,93,0.0,0.0,100,0.00,,---,0.12,VWS V14.01,2013-02-26 00:56:00,
2013-02-25 20:01:00,63.9,63.9,29.85,SE,127,0.0,0.0,100,0.00,,---,0.12,VWS V14.01,2013-02-26 01:01:00,
2013-02-25 20:06:00,63.7,63.7,29.85,NNW,342,0.0,3.1,100,0.00,,---,0.12,VWS V14.01,2013-02-26 01:06:00,
2013-02-25 20:11:00,63.5,63.5,29.85,ENE,73,4.0,4.0,100,0.00,,---,0.12,VWS V14.01,2013-02-26 01:11:00,
2013-02-25 20:16:00,63.1,63.1,29.85,ENE,73,0.0,0.0,100,0.00,,---,0.12,VWS V14.01,2013-02-26 01:16:00,
2013-02-25 20:21:00,63.1,63.1,29.85,NNW,339,0.0,0.0,100,0.00,,---,0.12,VWS V14.01,2013-02-26 01:21:00,
2013-02-25 20:26:00,63.0,63.0,29.85,NNE,30,0.0,0.0,100,0.00,,---,0.12,VWS V14.01,2013-02-26 01:26:00,
2013-02-25 20:31:00,62.8,62.8,29.85,East,82,2.7,2.7,100,0.00,,---,0.12,VWS V14.01,2013-02-26 01:31:00,
2013-02-25 20:36:00,62.8,62.8,29.85,North,0,0.0,0.0,100,0.00,,---,0.12,VWS V14.01,2013-02-26 01:36:00,
2013-02-25 20:41:00,62.8,62.8,29.85,NNE,15,0.0,2.2,100,0.00,,---,0.12,VWS V14.01,2013-02-26 01:41:00,
2013-02-25 20:46:00,62.8,62.8,29.85,NNE,29,0.0,0.0,100,0.00,,---,0.12,VWS V14.01,2013-02-26 01:46:00,
2013-02-25 20:51:00,62.6,62.6,29.85,NNE,26,0.0,0.0,100,0.00,,---,0.12,VWS V14.01,2013-02-26 01:51:00,
2013-02-25 20:56:00,62.6,62.6,29.85,North,1,0.0,0.0,100,0.00,,---,0.12,VWS V14.01,2013-02-26 01:56:00,
2013-02-25 21:01:00,62.6,62.6,29.85,North,0,0.0,0.0,100,0.00,,---,0.12,VWS V14.01,2013-02-26 02:01:00,
2013-02-25 21:06:00,62.6,62.6,29.85,North,11,0.0,0.0,100,0.00,,---,0.12,VWS V14.01,2013-02-26 02:06:00,
2013-02-25 21:11:00,62.6,62.6,29.85,North,0,0.0,0.0,100,0.00,,---,0.12,VWS V14.01,2013-02-26 02:11:00,
2013-02-25 21:16:00,62.8,62.8,29.85,ENE,60,0.0,0.0,100,0.00,,---,0.12,VWS V14.01,2013-02-26 02:16:00,
2013-02-25 21:21:00,62.8,62.8,29.83,ENE,60,0.0,0.0,100,0.00,,---,0.12,VWS V14.01,2013-02-26 02:21:00,
2013-02-25 21:26:00,62.8,62.8,29.83,ENE,58,0.0,0.0,100,0.00,,---,0.12,VWS V14.01,2013-02-26 02:26:00,
2013-02-25 21:31:00,62.8,62.8,29.83,NNE,19,0.0,0.0,100,0.00,,---,0.12,VWS V14.01,2013-02-26 02:31:00,
2013-02-25 21:36:00,62.8,62.8,29.83,SE,125,0.0,0.0,100,0.00,,---,0.12,VWS V14.01,2013-02-26 02:36:00,
2013-02-25 21:41:00,63.0,63.0,29.83,ENE,66,0.0,0.0,100,0.00,,---,0.12,VWS V14.01,2013-02-26 02:41:00,
2013-02-25 21:46:00,62.8,62.8,29.83,North,353,0.0,0.0,100,0.00,,---,0.12,VWS V14.01,2013-02-26 02:46:00,
2013-02-25 21:51:00,63.0,63.0,29.83,North,353,0.0,0.0,100,0.00,,---,0.12,VWS V14.01,2013-02-26 02:51:00,
2013-02-25 21:56:00,63.0,63.0,29.83,North,353,0.0,0.0,100,0.00,,---,0.12,VWS V14.01,2013-02-26 02:56:00,
2013-02-25 22:01:00,63.0,63.0,29.83,North,353,0.0,0.0,100,0.00,,---,0.12,VWS V14.01,2013-02-26 03:01:00,
2013-02-25 22:06:00,63.0,63.0,29.83,North,353,0.0,0.0,100,0.00,,---,0.12,VWS V14.01,2013-02-26 03:06:00,
2013-02-25 22:11:00,63.0,63.0,29.83,NW,314,0.0,0.0,100,0.00,,---,0.12,VWS V14.01,2013-02-26 03:11:00,
2013-02-25 22:16:00,63.1,63.1,29.83,NW,314,0.0,0.0,100,0.00,,---,0.12,VWS V14.01,2013-02-26 03:16:00,
2013-02-25 22:21:00,63.1,63.1,29.83,NW,314,0.0,0.0,100,0.00,,---,0.12,VWS V14.01,2013-02-26 03:21:00,
2013-02-25 22:26:00,63.3,63.3,29.83,NNE,28,0.0,0.0,100,0.00,,---,0.12,VWS V14.01,2013-02-26 03:26:00,
2013-02-25 22:31:00,63.5,63.5,29.83,North,10,0.0,0.0,100,0.00,,---,0.12,VWS V14.01,2013-02-26 03:31:00,
2013-02-25 22:36:00,63.5,63.5,29.83,North,10,0.0,0.0,100,0.00,,---,0.12,VWS V14.01,2013-02-26 03:36:00,
2013-02-25 22:41:00,63.7,63.7,29.83,North,10,0.0,0.0,100,0.00,,---,0.12,VWS V14.01,2013-02-26 03:41:00,
2013-02-25 22:46:00,63.7,63.7,29.83,North,10,0.0,0.0,100,0.00,,---,0.12,VWS V14.01,2013-02-26 03:46:00,
2013-02-25 22:51:00,63.9,63.9,29.83,North,10,0.0,0.0,100,0.00,,---,0.12,VWS V14.01,2013-02-26 03:51:00,
2013-02-25 22:56:00,63.9,63.9,29.83,North,10,0.0,0.0,100,0.00,,---,0.12,VWS V14.01,2013-02-26 03:56:00,
2013-02-25 23:01:00,63.9,63.9,29.83,North,10,0.0,0.0,100,0.00,,---,0.12,VWS V14.01,2013-02-26 04:01:00,
2013-02-25 23:06:00,63.9,63.9,29.83,North,10,0.0,0.0,100,0.00,,---,0.12,VWS V14.01,2013-02-26 04:06:00,
2013-02-25 23:11:00,63.9,63.9,29.83,North,10,0.0,0.0,100,0.00,,---,0.12,VWS V14.01,2013-02-26 04:11:00,
2013-02-25 23:16:00,63.9,63.9,29.83,North,10,0.0,0.0,100,0.00,,---,0.12,VWS V14.01,2013-02-26 04:16:00,
2013-02-25 23:21:00,63.9,63.9,29.80,North,10,0.0,0.0,100,0.00,,---,0.12,VWS V14.01,2013-02-26 04:21:00,
2013-02-25 23:26:00,63.9,63.9,29.80,North,10,0.0,0.0,100,0.00,,---,0.12,VWS V14.01,2013-02-26 04:26:00,
2013-02-25 23:31:00,63.9,63.9,29.80,North,10,0.0,0.0,100,0.00,,---,0.12,VWS V14.01,2013-02-26 04:31:00,
2013-02-25 23:36:00,63.9,63.9,29.80,North,10,0.0,0.0,100,0.00,,---,0.12,VWS V14.01,2013-02-26 04:36:00,
2013-02-25 23:41:00,64.0,64.0,29.80,North,10,0.0,0.0,100,0.00,,---,0.12,VWS V14.01,2013-02-26 04:41:00,
2013-02-25 23:46:00,64.2,64.2,29.80,North,10,0.0,0.0,100,0.00,,---,0.12,VWS V14.01,2013-02-26 04:46:00,
2013-02-25 23:51:00,64.2,64.2,29.80,North,10,0.0,0.0,100,0.00,,---,0.12,VWS V14.01,2013-02-26 04:51:00,
2013-02-25 23:56:00,64.4,64.4,29.80,North,10,0.0,0.0,100,0.00,,---,0.12,VWS V14.01,2013-02-26 04:56:00,